Weather History for Mammoth, CA

Change the Weather History Date:

Sunday, September 29, 2013

  Actual Average Record
Temperature  
Mean Temperature 50 °F -  
Max Temperature 68 °F 64 °F 84 °F (2010)
Min Temperature 32 °F 47 °F 30 °F (2014)
Degree Days  
Heating Degree Days 15    
Moisture  
Dew Point 18 °F    
Average Humidity 30    
Maximum Humidity 56    
Minimum Humidity 12    
Precipitation  
Precipitation 0.00 in - - ()
Sea Level Pressure  
Sea Level Pressure 30.26 in    
Wind  
Wind Speed 7 mph (SW)    
Max Wind Speed 25 mph    
Max Gust Speed 34 mph    
Visibility 10 miles    
Events      
Averages and records for this station are not official NWS values.
T = Trace of Precipitation, MM = Missing Value Source: NWS Daily Summary

Daily Weather History Graph

Daily Weather History Graph

Search for Another Location

Airport:

Trip Planner

Search our weather history database for the weather conditions in past years. The results will help you decide how hot, cold, wet, or windy it might be!

Date:

Astronomy

Sep. 29, 2013 Rise Set
Actual Time 6:49 AM PDT 6:40 PM PDT
Civil Twilight 6:23 AM PDT 7:07 PM PDT
Nautical Twilight 5:52 AM PDT 7:37 PM PDT
Astronomical Twilight 5:22 AM PDT 8:07 PM PDT
Moon 1:40 AM PDT (9/29) 3:35 PM PDT (9/29)
Length of Visible Light 12h 43m
Length of Day
11h 51m
Waning Crescent, 26% of the Moon is Illuminated
Sep 29
Waning Crescent
Oct 4
New
Oct 11
First Quarter
Oct 18
Full
Oct 26
Last Quarter

Hourly Weather History & Observations

Time (PDT) Temp. Windchill Dew Point Humidity Pressure Visibility Wind Dir Wind Speed Gust Speed Precip Events Conditions
12:15 AM 35.6 °F 32.8 °F 17.6 °F 48% 30.30 in 10.0 mi North 3.5 mph - N/A   Clear
12:35 AM 35.6 °F 28.6 °F 19.4 °F 52% 30.30 in 10.0 mi North 9.2 mph - N/A   Clear
12:55 AM 35.6 °F - 19.4 °F 52% 30.31 in 10.0 mi Calm Calm - N/A   Clear
1:15 AM 37.4 °F - 19.4 °F 48% 30.31 in 10.0 mi Calm Calm - N/A   Clear
1:35 AM 37.4 °F 33.8 °F 19.4 °F 48% 30.31 in 10.0 mi North 4.6 mph - N/A   Clear
1:55 AM 33.8 °F - 17.6 °F 52% 30.31 in 10.0 mi Calm Calm - N/A   Clear
2:15 AM 37.4 °F 33.8 °F 19.4 °F 48% 30.30 in 10.0 mi SSE 4.6 mph - N/A   Clear
2:35 AM 37.4 °F - 19.4 °F 48% 30.28 in 10.0 mi Calm Calm - N/A   Clear
2:55 AM 35.6 °F 29.2 °F 19.4 °F 52% 30.29 in 10.0 mi WSW 8.1 mph - N/A   Clear
3:15 AM 37.4 °F 33.8 °F 19.4 °F 48% 30.28 in 10.0 mi North 4.6 mph - N/A   Clear
3:35 AM 33.8 °F 29.6 °F 19.4 °F 56% 30.28 in 10.0 mi West 4.6 mph - N/A   Clear
3:55 AM 32.0 °F 28.7 °F 17.6 °F 55% 30.27 in 10.0 mi NNE 3.5 mph - N/A   Clear
4:15 AM 33.8 °F 30.8 °F 19.4 °F 56% 30.27 in 10.0 mi West 3.5 mph - N/A   Clear
4:35 AM 32.0 °F - 17.6 °F 55% 30.26 in 10.0 mi North - - N/A   Clear
4:55 AM 35.6 °F - 19.4 °F 52% 30.26 in 10.0 mi Calm Calm - N/A   Clear
5:15 AM 37.4 °F 32.8 °F 19.4 °F 48% 30.25 in 10.0 mi NNW 5.8 mph - N/A   Clear
5:35 AM 35.6 °F - 19.4 °F 52% 30.25 in 10.0 mi Calm Calm - N/A   Clear
5:55 AM 41.0 °F - 19.4 °F 42% 30.25 in 10.0 mi Calm Calm - N/A   Clear
6:15 AM 39.2 °F 33.6 °F 23.0 °F 52% 30.26 in 10.0 mi North 8.1 mph - N/A   Clear
6:35 AM 42.8 °F - 21.2 °F 42% 30.26 in 10.0 mi Calm Calm - N/A   Clear
6:55 AM 42.8 °F 39.3 °F 19.4 °F 39% 30.27 in 10.0 mi SSE 5.8 mph - N/A   Clear
7:15 AM 41.0 °F 36.4 °F 23.0 °F 49% 30.27 in 10.0 mi SSE 6.9 mph - N/A   Clear
7:35 AM 41.0 °F 35.8 °F 23.0 °F 49% 30.27 in 10.0 mi SE 8.1 mph - N/A   Clear
7:55 AM 48.2 °F - 19.4 °F 32% 30.27 in 10.0 mi Calm Calm - N/A   Clear
8:15 AM 53.6 °F - 19.4 °F 26% 30.27 in 10.0 mi ENE 6.9 mph - N/A   Clear
8:35 AM 53.6 °F - 19.4 °F 26% 30.27 in 10.0 mi ESE 8.1 mph - N/A   Clear
8:55 AM 53.6 °F - 21.2 °F 28% 30.27 in 10.0 mi ESE 8.1 mph - N/A   Clear
9:15 AM 51.8 °F - 19.4 °F 28% 30.25 in 10.0 mi East 13.8 mph 18.4 mph N/A   Clear
9:35 AM 53.6 °F - 19.4 °F 26% 30.27 in 10.0 mi Calm Calm - N/A   Clear
9:55 AM 53.6 °F - 21.2 °F 28% 30.26 in 10.0 mi East 6.9 mph - N/A   Clear
10:15 AM 55.4 °F - 23.0 °F 29% 30.27 in 10.0 mi East 9.2 mph 16.1 mph N/A   Clear
10:35 AM 59.0 °F - 15.8 °F 19% 30.26 in 10.0 mi South 18.4 mph 29.9 mph N/A   Clear
10:55 AM 60.8 °F - 14.0 °F 16% 30.26 in 10.0 mi South 25.3 mph 34.5 mph N/A   Clear
11:15 AM 60.8 °F - 15.8 °F 17% 30.28 in 10.0 mi SSW 11.5 mph 25.3 mph N/A   Clear
11:35 AM 60.8 °F - 15.8 °F 17% 30.28 in 10.0 mi SW 6.9 mph 21.9 mph N/A   Clear
11:55 AM 60.8 °F - 15.8 °F 17% 30.28 in 10.0 mi SSW 12.7 mph 24.2 mph N/A   Clear
12:15 PM 60.8 °F - 17.6 °F 19% 30.29 in 10.0 mi SW 11.5 mph 16.1 mph N/A   Clear
12:35 PM 62.6 °F - 17.6 °F 18% 30.27 in 10.0 mi SSW 16.1 mph 26.5 mph N/A   Clear
12:55 PM 62.6 °F - 17.6 °F 18% 30.27 in 10.0 mi South 23.0 mph 31.1 mph N/A   Clear
1:15 PM 62.6 °F - 14.0 °F 15% 30.26 in 10.0 mi SSW 19.6 mph 27.6 mph N/A   Scattered Clouds
1:35 PM 62.6 °F - 14.0 °F 15% 30.25 in 10.0 mi Calm Calm - N/A   Clear
1:55 PM 64.4 °F - 15.8 °F 15% 30.25 in 10.0 mi WSW 10.4 mph 20.7 mph N/A   Clear
2:15 PM 64.4 °F - 15.8 °F 15% 30.24 in 10.0 mi West 15.0 mph 23.0 mph N/A   Clear
2:35 PM 64.4 °F - 15.8 °F 15% 30.24 in 10.0 mi West 3.5 mph 9.2 mph N/A   Clear
2:55 PM 64.4 °F - 15.8 °F 15% 30.24 in 10.0 mi WSW 8.1 mph 20.7 mph N/A   Clear
3:15 PM 64.4 °F - 15.8 °F 15% 30.23 in 10.0 mi South 5.8 mph 21.9 mph N/A   Clear
3:35 PM 64.4 °F - 15.8 °F 15% 30.23 in 10.0 mi West 8.1 mph 23.0 mph N/A   Clear
3:55 PM 66.2 °F - 15.8 °F 14% 30.22 in 10.0 mi West 5.8 mph - N/A   Clear
4:15 PM 68.0 °F - 15.8 °F 13% 30.22 in 10.0 mi SSW 16.1 mph 26.5 mph N/A   Clear
4:35 PM 68.0 °F - 14.0 °F 12% 30.22 in 10.0 mi SW 8.1 mph 21.9 mph N/A   Clear
4:55 PM 68.0 °F - 15.8 °F 13% 30.22 in 10.0 mi WNW 16.1 mph 23.0 mph N/A   Clear
5:15 PM 68.0 °F - 15.8 °F 13% 30.22 in 10.0 mi SSW 15.0 mph 21.9 mph N/A   Clear
5:35 PM 66.2 °F - 15.8 °F 14% 30.23 in 10.0 mi WSW 12.7 mph 20.7 mph N/A   Clear
5:55 PM 64.4 °F - 15.8 °F 15% 30.23 in 10.0 mi SSW 9.2 mph 23.0 mph N/A   Clear
6:15 PM 62.6 °F - 15.8 °F 16% 30.23 in 10.0 mi WSW 4.6 mph - N/A   Clear
6:35 PM 60.8 °F - 17.6 °F 19% 30.24 in 10.0 mi West 13.8 mph 28.8 mph N/A   Clear
6:55 PM 60.8 °F - 19.4 °F 20% 30.24 in 10.0 mi West 17.3 mph 25.3 mph N/A   Clear
7:15 PM 59.0 °F - 19.4 °F 22% 30.24 in 10.0 mi West 16.1 mph 26.5 mph N/A   Clear
7:35 PM 59.0 °F - 19.4 °F 22% 30.24 in 10.0 mi WSW 17.3 mph 26.5 mph N/A   Clear
7:55 PM 59.0 °F - 17.6 °F 20% 30.24 in 10.0 mi SW 17.3 mph 28.8 mph N/A   Clear
8:15 PM 59.0 °F - 17.6 °F 20% 30.24 in 10.0 mi West 15.0 mph 24.2 mph N/A   Clear
8:35 PM 59.0 °F - 15.8 °F 19% 30.25 in 10.0 mi WSW 5.8 mph 9.2 mph N/A   Clear
8:55 PM 59.0 °F - 17.6 °F 20% 30.25 in 10.0 mi SSW 15.0 mph 28.8 mph N/A   Clear
9:15 PM 57.2 °F - 17.6 °F 21% 30.26 in 10.0 mi NNE 5.8 mph 16.1 mph N/A   Clear
9:35 PM 51.8 °F - 19.4 °F 28% 30.26 in 10.0 mi Calm Calm - N/A   Clear
9:55 PM 50.0 °F - 19.4 °F 30% 30.25 in 10.0 mi North 6.9 mph - N/A   Clear
10:15 PM 50.0 °F - 19.4 °F 30% 30.25 in 10.0 mi Calm Calm - N/A   Clear
10:55 PM 57.2 °F - 15.8 °F 20% 30.24 in 10.0 mi SSW 19.6 mph 25.3 mph N/A   Clear
11:15 PM 55.4 °F - 15.8 °F 21% 30.25 in 10.0 mi South 6.9 mph - N/A   Clear
11:35 PM 53.6 °F - 17.6 °F 24% 30.24 in 10.0 mi NE 4.6 mph - N/A   Clear
11:55 PM 51.8 °F - 19.4 °F 28% 30.24 in 10.0 mi South 10.4 mph 19.6 mph N/A   Clear